Location: Gauravaram
(16.6995°N, 80.5417°E)
Time: 17:58:32
(UTC+00:00)

Cosmos 1624 Rocket - Pass Details

Date: 03 August 2024
Orbit: 754 x 781 km, 74.0° (Epoch: 18 September)

Event Time Altitude Azimuth Distance (km) Brightness Sun altitude
Exits shadow 14:33:56 35° 143° (SE) 1,201 4.5 -19.7°
Maximum altitude 14:35:25 45° 101° (E) 1,031 4.2 -20.0°
Drops below altitude 10° 14:40:21 10° 30° (NNE) 2,296 6.4 -21.1°
Sets 14:42:49 0° 24° (NNE) 3,228 7.3 -21.6°
